Location: Chilton Park
(37.7711°N, 100.0276°W)
Time: 10:09:28
(UTC+00:00)

Cosmos 1898 Rocket - Pass Details

Date: 08 July 2022
Orbit: 753 x 783 km, 74.0° (Epoch: 14 August)

Event Time Altitude Azimuth Distance (km) Brightness Sun altitude
Rises 06:20:18 0° 356° (N) 3,213 7.9 -29.5°
Reaches altitude 10° 06:23:15 10° 13° (NNE) 2,284 6.8 -29.5°
Maximum altitude 06:27:06 21° 61° (ENE) 1,667 5.4 -29.6°
Enters shadow 06:27:57 20° 74° (ENE) 1,703 5.3 -29.6°
